Date,TemperatureHighF,TemperatureAvgF,TemperatureLowF,DewpointHighF,DewpointAvgF,DewpointLowF,HumidityHigh,HumidityAvg,HumidityLow,PressureMaxIn,PressureMinIn,WindSpeedMaxMPH,WindSpeedAvgMPH,GustSpeedMaxMPH,PrecipitationSumIn
2013-1-1,42.3,41.7,40.9,39.6,39.0,38.2,90,90,89,30.23,30.22,0,0,0,0.00
2013-1-10,59.5,53.5,44.6,50.6,40.4,29.6,89,63,33,30.10,29.91,12,4,0,0.01
2013-1-11,56.9,49.7,40.1,34.9,28.3,24.1,62,44,32,30.18,30.05,9,4,0,0.00
2013-1-12,56.2,45.4,34.0,35.6,29.0,24.4,80,54,30,30.16,30.06,5,1,0,0.00
2013-1-13,44.1,34.6,31.4,32.4,30.6,28.0,88,85,59,30.16,30.09,0,0,0,0.00
2013-1-14,56.4,47.1,36.8,33.9,18.9,7.5,70,35,16,30.33,30.12,5,2,0,0.00
2013-1-15,62.1,44.9,30.6,37.6,29.3,21.3,86,60,23,30.45,30.31,6,1,0,0.00
2013-1-16,70.8,49.1,34.4,41.1,35.6,31.2,89,66,28,30.35,30.15,4,0,6,0.00
2013-1-17,80.0,54.5,38.1,40.8,34.4,23.0,85,56,13,30.15,30.03,7,1,14,0.00
2013-1-18,81.0,58.3,39.8,39.9,34.2,27.6,79,46,15,30.12,30.02,3,0,7,0.00
2013-1-19,79.0,59.4,43.1,39.6,34.8,26.9,83,46,16,30.17,30.05,3,0,6,0.00
2013-1-20,79.1,52.2,42.1,36.7,31.9,26.0,75,51,15,30.13,30.02,2,0,5,0.00
2013-1-21,81.5,57.0,39.5,37.5,32.9,26.7,79,49,14,30.08,30.00,4,1,0,0.00
2013-1-22,81.3,54.4,37.4,41.3,34.7,19.4,81,55,10,30.08,29.99,3,0,4,0.00
2013-1-23,73.7,59.9,48.6,53.8,42.6,37.9,84,56,30,30.13,30.00,2,0,4,0.01
2013-1-24,68.2,60.3,54.8,57.1,54.4,50.6,89,81,66,30.19,30.08,3,1,5,0.61
2013-1-25,67.4,61.8,59.3,60.5,57.3,55.7,89,85,75,30.10,29.94,3,1,5,0.12
2013-1-26,66.6,59.9,55.6,62.0,56.8,52.7,92,89,83,29.99,29.88,4,1,6,0.03
2013-1-27,61.5,54.6,50.0,53.6,47.6,42.2,90,78,66,30.03,29.97,4,1,6,0.05
2013-1-28,60.7,51.8,39.5,43.1,36.8,32.3,84,58,40,30.17,30.07,9,3,15,0.00
2013-1-29,60.2,50.6,39.6,42.3,39.3,33.7,86,66,49,30.23,30.16,3,0,3,0.00
2013-2-4,63.4,55.8,48.3,56.1,51.7,45.2,90,86,76,30.10,29.97,4,1,0,0.00
2013-2-5,59.0,55.6,53.8,52.3,50.8,49.6,87,84,78,30.10,29.98,4,0,0,0.00
2013-2-6,55.0,54.2,53.1,50.1,49.6,48.9,86,84,83,30.03,30.00,0,0,0,0.00
2013-2-7,61.4,52.4,42.4,52.6,46.7,39.7,91,81,71,30.13,29.98,5,1,0,0.00
2013-2-8,55.7,51.0,42.2,47.6,43.5,39.4,90,76,64,30.01,29.88,8,3,12,0.25
2013-2-9,58.9,45.6,36.3,45.2,39.7,33.6,91,81,53,30.10,29.94,5,1,11,0.01
2013-2-10,52.7,44.2,38.9,45.7,40.4,36.2,90,86,77,30.10,30.03,2,0,2,0.00
2013-2-11,61.6,53.3,39.4,47.1,43.0,36.7,90,70,47,30.23,30.08,6,2,11,0.00
2013-2-12,61.7,49.6,37.5,49.0,41.4,34.5,94,75,41,30.34,30.23,5,0,6,0.00
2013-2-13,66.4,52.3,37.9,49.6,42.0,35.2,90,71,43,30.26,30.12,5,1,9,0.01
2013-2-14,70.5,58.9,48.4,55.8,48.8,44.8,89,70,53,30.20,30.04,4,1,6,0.00
2013-2-15,82.3,70.1,45.3,46.8,38.2,29.4,80,37,15,30.16,30.09,5,1,10,0.00
2013-2-16,82.2,66.2,47.7,38.5,32.7,26.5,68,34,14,30.13,29.96,6,1,10,0.00
2013-2-17,63.3,52.5,42.4,54.7,46.9,38.2,92,81,70,30.02,29.92,5,1,7,0.00
2013-2-18,62.2,56.3,53.8,49.7,48.2,45.7,81,75,63,30.06,29.95,5,2,10,0.00
2013-2-19,58.9,53.9,48.5,48.7,44.4,41.9,89,70,59,29.99,29.71,8,2,14,0.28
2013-2-20,60.7,55.0,44.0,44.2,37.6,31.8,67,52,42,29.98,29.75,11,6,13,0.00
2013-2-21,63.7,53.5,39.2,46.5,42.2,34.1,87,67,51,30.05,29.96,6,2,11,0.00
2013-2-22,61.1,52.3,46.0,49.9,46.2,42.6,88,80,64,30.17,30.12,5,1,5,0.00
2013-2-23,61.7,55.0,45.7,50.5,47.4,42.4,89,77,53,30.16,29.92,6,1,9,0.01
2013-2-24,63.6,54.8,47.9,38.8,35.5,20.7,70,51,20,30.17,30.10,4,0,4,0.00
2013-2-25,64.5,55.2,37.7,49.0,40.8,32.4,82,60,42,30.21,30.06,6,1,10,0.00
2013-2-26,68.7,64.1,56.9,53.2,49.6,41.5,77,60,38,30.05,29.97,6,3,11,0.00
2013-3-11,71.2,57.7,42.5,56.2,48.2,39.5,90,72,41,30.17,30.03,5,1,0,0.00
2013-3-12,74.2,58.5,44.3,57.5,50.3,41.6,91,76,43,30.08,29.99,4,1,0,0.00
2013-3-13,77.9,71.0,64.9,58.9,55.3,47.9,74,59,41,30.08,30.00,4,2,7,0.00
2013-3-14,54.4,52.9,51.9,51.5,50.0,49.1,91,90,89,30.08,30.05,1,0,2,0.00
2013-3-15,57.1,56.7,56.3,53.6,53.2,52.8,88,88,88,30.04,30.03,2,1,0,0.00
2013-3-17,64.9,59.3,56.9,54.5,53.0,52.4,86,80,68,29.99,29.93,5,2,10,0.00
2013-3-18,63.7,58.4,57.1,53.7,52.0,50.6,85,79,69,30.07,29.97,3,1,7,0.00
2013-3-19,65.9,57.5,50.5,56.4,52.5,47.7,90,84,70,30.11,30.04,4,0,8,0.00
2013-3-20,70.8,58.8,50.8,58.5,53.0,48.0,90,82,55,30.09,29.95,5,1,9,0.00
2013-3-21,67.9,59.4,52.4,57.6,53.7,49.3,90,82,67,29.95,29.80,5,1,9,0.00
2013-3-22,65.9,64.7,62.8,55.7,55.0,54.2,75,71,67,29.87,29.85,5,3,8,0.00
2013-3-23,66.5,59.9,54.3,56.1,53.4,50.2,89,80,67,30.00,29.90,5,2,9,0.00
2013-3-24,71.9,66.1,53.4,58.1,55.2,50.2,89,69,57,30.01,29.87,6,2,9,0.00
2013-3-25,70.1,59.4,53.6,58.2,54.1,50.4,92,83,59,29.98,29.88,5,1,8,0.00
2013-3-26,67.4,60.7,53.9,56.5,54.2,50.7,92,80,65,29.96,29.88,5,2,10,0.01
2013-3-27,60.7,57.2,54.7,53.4,52.3,51.0,89,84,77,30.01,29.92,1,0,2,0.00
2013-3-28,69.7,61.8,52.8,58.1,54.6,49.8,90,78,63,30.07,29.99,6,1,12,0.00
2013-3-29,65.9,57.8,53.7,58.2,53.8,50.5,90,86,75,30.11,30.04,5,0,8,0.00
2013-3-30,69.6,59.9,56.0,57.5,54.3,51.7,88,82,61,30.13,30.04,6,2,10,0.00
2013-3-31,67.7,61.5,54.5,59.7,55.8,51.2,89,82,71,30.13,30.04,7,2,9,0.00
2013-4-1,67.5,60.7,55.7,56.4,53.3,50.3,86,77,62,30.16,30.06,9,3,13,0.00
2013-4-2,67.4,59.9,54.0,57.6,53.8,50.2,88,81,63,30.09,29.99,5,1,12,0.00
2013-4-3,75.8,61.0,53.5,60.9,55.0,50.3,92,81,59,30.08,29.97,6,1,11,0.00
2013-4-4,72.9,62.5,58.1,59.1,55.8,53.8,87,79,59,30.10,30.00,8,2,11,0.00
2013-4-5,66.6,61.0,58.9,58.4,56.0,54.8,88,84,72,30.09,29.99,7,2,5,0.00
2013-4-6,68.9,61.2,57.6,58.0,55.6,53.6,89,82,67,30.08,29.95,7,2,9,0.00
2013-4-7,68.0,63.5,58.4,58.1,56.4,53.9,88,78,68,29.96,29.81,7,2,11,0.00
2013-4-8,67.8,62.3,56.6,55.6,49.3,45.1,88,64,44,29.82,29.66,12,7,19,0.00
2013-4-9,74.6,62.1,50.7,52.2,43.8,33.2,82,55,23,29.99,29.81,9,2,14,0.00
2013-4-10,79.8,63.1,47.5,54.4,45.5,29.8,89,61,17,30.09,29.97,8,2,13,0.00
2013-4-11,70.9,61.1,49.1,57.3,52.5,45.7,89,74,49,29.99,29.78,6,2,12,0.00
2013-4-12,71.0,61.6,56.1,57.2,53.8,52.0,87,76,61,29.90,29.77,6,2,11,0.00
2013-4-13,61.3,58.9,56.8,55.9,53.8,51.2,89,83,80,29.91,29.84,4,1,6,0.00
2013-4-14,64.0,59.0,55.2,55.4,52.5,50.4,85,79,70,29.88,29.82,5,2,10,0.00
2013-4-15,65.5,59.1,57.1,55.6,52.9,50.7,88,80,69,29.90,29.83,7,2,10,0.02
2013-4-16,66.0,58.0,49.5,50.7,46.4,31.8,84,67,33,29.98,29.86,11,3,15,0.00
2013-4-17,73.9,66.0,53.0,46.4,33.2,25.0,78,31,17,30.11,30.02,10,4,13,0.00
2013-4-18,80.9,63.1,46.6,46.1,33.2,20.8,86,43,11,30.17,30.10,8,2,13,0.00
2013-4-19,85.5,68.8,45.1,51.8,38.1,26.5,83,40,12,30.14,29.95,8,2,13,0.00
2013-4-20,78.8,65.7,53.2,60.3,55.0,47.3,89,70,33,29.98,29.86,6,1,10,0.00
2013-4-21,70.8,62.9,56.9,59.6,56.6,53.4,89,80,65,30.01,29.94,6,2,10,0.00
2013-4-22,67.4,61.9,57.7,56.9,54.6,52.2,86,77,67,30.01,29.90,7,2,12,0.00
2013-4-23,69.1,62.8,57.2,56.6,53.5,51.3,86,72,62,29.97,29.85,6,2,10,0.00
2013-4-24,64.8,60.8,58.4,55.9,54.2,52.7,85,79,67,29.96,29.89,5,1,9,0.00
2013-4-25,70.7,63.3,58.2,56.2,53.9,51.8,85,72,54,30.11,29.95,6,2,11,0.00
2013-4-26,74.9,63.3,51.4,57.8,53.5,48.0,89,72,49,30.14,30.08,7,2,13,0.00
2013-4-27,77.3,65.0,52.4,62.0,56.5,49.3,90,75,53,30.15,29.98,6,2,11,0.00
2013-4-28,71.4,63.6,58.9,60.7,57.1,54.7,89,80,67,30.02,29.84,5,1,11,0.00
2013-4-29,66.8,61.4,58.9,58.0,55.9,54.0,89,82,70,29.90,29.78,6,2,11,0.00
2013-4-30,65.8,61.4,59.1,57.3,55.0,53.8,83,80,73,29.89,29.82,5,2,10,0.00
2013-5-1,73.7,65.5,60.2,59.9,56.9,54.7,85,74,61,30.08,29.89,7,2,11,0.00
2013-5-2,92.8,69.1,53.9,61.3,52.3,19.0,89,64,7,30.10,29.96,7,1,11,0.00
2013-5-3,90.6,72.8,52.4,59.1,47.0,28.2,88,48,13,30.00,29.76,6,1,14,0.00
2013-5-4,70.2,64.7,59.1,59.2,57.0,53.1,87,76,67,29.84,29.75,7,3,13,0.01
2013-5-5,66.2,62.5,59.3,55.9,54.5,53.1,87,75,64,29.94,29.90,4,2,9,0.02
2013-5-6,69.5,63.3,58.4,59.6,57.2,54.9,89,81,66,30.01,29.90,6,2,12,0.43
2013-5-7,69.6,62.7,56.7,56.6,54.8,51.8,89,76,56,30.06,29.97,8,2,16,0.22
2013-5-8,70.9,65.2,56.3,57.9,53.6,49.8,86,67,51,30.09,30.05,9,3,14,0.00
2013-5-9,68.6,62.2,54.2,58.7,55.2,50.7,89,78,66,30.09,30.01,8,2,16,0.00
2013-5-10,77.1,64.5,56.0,62.3,57.6,52.6,89,79,57,30.08,29.99,5,2,11,0.00
2013-5-11,80.2,69.0,58.7,66.6,60.8,55.2,88,76,60,30.06,29.97,6,2,10,0.00
2013-5-12,86.4,77.2,66.6,67.6,63.7,59.8,84,64,43,30.02,29.88,5,2,9,0.00
2013-5-13,85.6,70.1,62.3,67.7,62.3,58.6,88,78,50,29.95,29.90,3,0,6,0.00
2013-5-14,79.9,67.6,58.0,61.2,57.2,52.7,86,71,43,29.99,29.88,5,2,0,0.00
2013-5-15,70.1,64.2,58.9,59.8,57.0,54.7,86,78,69,30.04,29.94,6,2,5,0.00
2013-5-16,71.3,65.2,61.8,60.0,57.1,55.2,84,75,66,29.97,29.88,6,2,12,0.00
2013-5-17,71.5,65.3,61.2,61.0,58.0,55.7,84,78,67,29.99,29.90,7,2,14,0.00
2013-5-18,70.8,63.9,57.3,60.7,56.9,53.5,88,78,66,30.03,29.95,6,2,11,0.00
2013-5-19,72.6,65.4,58.0,61.6,58.2,54.1,88,78,66,29.98,29.87,7,2,11,0.00
2013-5-20,71.5,62.4,58.1,62.0,57.5,54.6,88,84,72,29.94,29.90,5,1,9,0.00
2013-5-21,72.8,67.8,63.4,63.2,60.8,58.5,86,79,69,29.93,29.82,6,2,11,0.00
2013-5-22,72.7,67.0,63.4,61.0,58.6,56.7,84,75,64,29.85,29.76,6,2,10,0.00
2013-5-23,71.7,65.1,57.8,59.4,55.8,52.2,83,72,61,29.92,29.82,7,2,12,0.00
2013-5-24,69.9,62.7,56.2,57.8,55.2,51.1,88,77,62,29.99,29.90,6,2,10,0.00
2013-5-25,71.5,65.3,58.2,59.0,55.6,52.6,85,71,59,30.03,29.95,7,3,12,0.14
2013-5-26,69.4,63.4,56.6,58.9,56.1,52.9,88,78,66,30.05,29.98,8,3,13,0.00
2013-5-27,62.2,61.6,59.9,57.3,56.5,55.1,85,83,81,30.00,29.93,2,1,4,0.00
2013-5-28,73.9,67.9,61.3,63.4,60.4,56.8,86,77,65,29.88,29.73,10,5,14,0.00
2013-5-29,74.6,68.5,62.8,64.3,61.2,58.2,86,78,66,29.80,29.71,9,4,12,0.00
2013-5-30,73.1,66.1,59.8,63.4,60.2,56.2,89,82,71,29.88,29.75,8,3,12,0.00
2013-5-31,78.1,69.0,63.4,66.1,61.5,58.1,85,77,63,29.91,29.79,7,3,11,0.00
2013-6-1,65.7,65.2,64.5,61.1,60.5,59.9,86,85,84,29.85,29.81,1,0,4,0.00
2013-6-2,68.6,65.6,63.7,61.8,59.8,57.4,85,82,76,29.83,29.76,7,2,0,0.00
2013-6-3,72.0,65.6,63.4,61.8,58.9,57.7,83,79,70,29.88,29.79,8,3,11,0.00
2013-6-4,72.0,65.9,62.9,60.9,58.7,57.4,84,78,66,29.96,29.88,9,3,12,0.00
2013-6-5,74.7,66.6,61.8,60.6,58.4,56.7,84,75,60,30.00,29.90,9,4,14,0.00
2013-6-6,73.5,64.7,61.2,62.2,58.3,56.3,85,80,66,29.95,29.85,8,3,13,0.00
2013-6-7,69.3,64.1,61.7,61.5,58.2,56.7,85,81,75,29.90,29.78,9,2,12,0.00
2013-6-8,68.6,64.2,62.1,60.8,58.6,57.4,86,82,75,29.90,29.78,7,3,11,0.00
2013-6-9,68.5,63.7,58.5,61.4,58.2,54.3,86,82,75,29.93,29.87,7,2,12,0.00
2013-6-10,76.0,66.8,58.4,61.0,58.4,54.2,87,75,58,29.95,29.88,9,3,15,0.00
2013-6-11,80.9,67.6,60.6,66.4,60.5,56.7,87,79,59,29.93,29.86,7,2,10,0.00
2013-6-12,69.0,65.6,64.0,61.8,60.1,58.5,86,82,76,30.03,29.92,8,3,13,0.00
2013-6-13,75.5,67.6,61.6,62.8,59.9,57.0,86,77,63,30.01,29.88,8,3,13,0.00
2013-6-14,69.8,65.0,60.3,60.8,58.7,56.2,88,80,71,29.92,29.84,8,3,15,0.00
2013-6-15,72.3,65.5,60.6,60.5,57.8,56.1,86,77,65,29.97,29.88,7,3,11,0.00
2013-6-16,75.8,65.6,60.0,62.3,58.6,55.9,87,78,61,30.02,29.93,8,2,14,0.00
2013-6-17,75.5,66.3,58.5,63.5,59.6,55.0,89,79,59,29.98,29.87,9,2,14,0.00
2013-6-18,73.5,66.9,59.7,63.9,60.7,56.1,89,81,68,29.92,29.82,8,3,13,0.00
2013-6-19,69.6,63.6,61.5,60.9,58.8,57.3,88,84,73,29.86,29.80,4,1,9,0.00
2013-6-20,74.7,67.2,58.3,64.1,59.7,54.8,89,78,54,29.86,29.79,8,3,0,0.00
2013-6-21,74.0,67.4,59.3,64.6,60.6,55.7,89,79,68,29.90,29.82,7,3,0,0.00
2013-6-22,73.9,67.6,63.7,62.6,60.5,58.8,86,79,62,29.91,29.80,6,2,9,0.00
2013-6-23,71.0,66.1,64.0,61.4,59.5,57.7,85,80,70,29.87,29.79,8,3,12,0.00
2013-6-24,74.2,67.4,63.4,62.2,60.0,58.7,86,78,63,29.94,29.82,7,3,12,0.00
2013-6-25,77.4,67.3,62.9,65.1,61.4,59.0,88,82,62,29.99,29.89,7,2,11,0.00
2013-6-26,78.5,68.9,61.6,67.0,62.5,58.0,89,81,64,29.97,29.90,9,2,11,0.00
2013-7-4,77.1,70.8,65.1,65.8,63.3,60.5,85,78,67,29.83,29.74,7,4,0,0.00
2013-7-5,75.3,68.7,65.3,65.8,62.8,60.7,86,82,72,29.83,29.76,8,3,0,0.00
2013-7-6,75.2,69.6,66.3,66.1,63.5,61.6,86,81,73,29.83,29.73,8,3,0,0.00
2013-7-7,76.9,68.8,64.9,67.6,63.1,60.2,85,82,73,29.85,29.77,7,2,4,0.00
2013-7-8,81.6,72.0,63.5,63.4,61.2,59.2,87,71,52,29.91,29.83,6,2,11,0.00
2013-7-9,76.3,69.3,62.7,66.6,62.9,58.8,88,80,68,30.00,29.88,9,2,13,0.00
2013-7-10,76.1,69.8,66.6,68.2,64.8,62.4,87,84,76,29.96,29.90,5,1,11,0.00
2013-7-11,73.0,69.8,68.7,66.8,65.0,64.3,86,85,80,29.97,29.88,5,1,8,0.00
2013-7-12,83.3,72.7,64.4,68.5,65.5,60.1,87,79,55,29.92,29.83,8,2,13,0.00
2013-7-13,81.0,68.2,63.1,67.3,62.1,59.2,89,81,59,29.95,29.84,7,1,10,0.00
2013-7-14,80.3,73.7,66.0,67.7,65.5,61.7,86,76,63,29.92,29.80,6,2,11,0.00
2013-8-15,74.4,68.3,64.4,65.7,62.9,60.6,88,83,73,29.93,29.86,7,2,0,0.00
2013-8-16,83.2,70.6,63.6,67.8,63.4,60.0,89,79,56,29.95,29.87,6,2,0,0.00
2013-8-17,83.2,70.0,62.9,66.5,62.5,59.3,88,78,54,29.94,29.79,6,2,0,0.00
2013-8-18,73.8,67.2,63.5,65.5,61.9,59.9,88,83,74,29.90,29.81,7,2,0,0.00
2013-8-19,73.9,68.4,64.1,65.2,62.7,59.8,87,82,72,29.95,29.83,7,2,0,0.00
2013-8-20,82.6,69.8,63.8,67.0,62.3,59.9,88,78,56,29.92,29.82,6,2,0,0.00
2013-8-21,83.8,70.1,60.8,67.4,60.7,57.2,89,74,51,29.89,29.82,8,2,10,0.00
2013-8-22,88.1,77.4,66.3,65.7,61.1,56.6,81,59,37,29.89,29.78,10,3,11,0.00
2013-8-23,87.6,70.6,61.1,63.4,59.9,55.1,88,72,35,29.86,29.72,8,2,11,0.00
2013-8-24,80.8,69.6,61.3,64.6,61.5,57.7,88,76,54,29.87,29.74,7,3,12,0.00
2013-8-25,82.5,68.5,60.9,65.6,60.7,57.3,88,78,55,29.90,29.83,6,2,8,0.00
2013-8-26,89.6,73.1,62.7,66.8,61.7,58.8,89,70,37,29.90,29.79,6,2,9,0.01
2013-8-27,79.0,69.6,66.8,66.2,62.5,59.5,85,79,65,29.83,29.77,7,2,12,0.00
2013-8-28,91.6,75.4,65.3,67.3,62.3,50.4,86,67,28,29.84,29.75,7,2,9,0.00
2013-8-29,95.3,86.0,74.3,67.9,63.1,56.1,72,48,34,29.91,29.83,6,3,10,0.00
2013-8-30,89.2,78.4,71.2,70.6,66.9,64.5,83,69,51,29.95,29.87,7,2,13,0.00
2013-8-31,78.2,74.0,72.0,69.2,66.5,64.9,83,77,71,29.94,29.90,1,0,2,0.00
2013-9-1,89.3,76.8,69.8,73.7,68.1,64.1,83,75,59,29.91,29.82,9,2,12,0.00
2013-9-2,89.3,75.0,68.6,72.9,67.7,64.7,88,79,57,29.90,29.78,8,2,11,0.00
2013-9-3,92.9,78.4,69.0,72.0,68.0,65.1,88,72,48,29.88,29.79,8,2,13,0.00
2013-9-4,94.5,77.2,68.4,70.4,65.3,62.5,86,69,41,29.87,29.80,7,2,12,0.00
2013-9-5,85.3,73.3,66.7,68.5,64.2,62.3,87,74,47,29.86,29.79,3,0,4,0.00
2013-9-6,96.1,76.2,66.1,70.1,65.0,62.2,88,71,36,29.84,29.75,7,2,11,0.00
2013-9-7,88.5,78.9,67.9,70.3,64.7,60.0,84,64,47,29.84,29.77,6,2,9,0.00
2013-9-8,81.2,71.5,63.3,67.1,63.3,59.7,88,76,56,29.83,29.73,6,2,9,0.00
2013-9-9,69.7,64.5,62.9,63.6,59.9,58.9,88,85,81,29.79,29.75,5,0,6,0.00
2013-9-10,70.0,64.2,61.3,61.3,59.2,57.4,88,84,74,29.92,29.79,3,0,4,0.00
2013-9-11,74.7,63.4,59.9,63.1,58.7,56.3,89,85,67,29.99,29.92,8,1,13,0.00
2013-9-12,86.1,69.2,58.9,67.8,61.3,55.7,89,77,48,29.92,29.80,7,2,11,0.00
2013-9-13,82.4,66.4,60.1,65.6,61.1,56.8,89,83,55,29.82,29.65,6,1,10,0.00
2013-9-14,72.4,66.0,62.4,65.5,61.6,58.8,89,86,73,29.71,29.65,5,1,6,0.01
2013-9-15,86.1,71.8,63.8,69.5,63.7,60.3,89,77,52,29.75,29.68,8,2,11,0.00
2013-9-16,87.5,74.7,64.0,69.1,63.5,60.2,88,70,46,29.80,29.71,7,2,11,0.01
2013-9-17,72.7,66.7,63.0,64.2,61.6,59.4,89,84,73,29.81,29.72,6,2,11,0.00
2013-9-18,73.8,67.4,63.3,63.4,60.8,59.5,88,80,67,29.81,29.73,7,2,12,0.00
2013-9-19,74.9,66.7,59.7,65.0,61.1,56.5,89,83,70,29.81,29.75,8,2,11,0.00
2013-9-20,70.9,67.8,66.4,64.0,62.3,60.7,86,83,78,29.87,29.80,5,2,7,0.00
2013-9-21,73.2,67.6,63.7,62.0,59.9,58.1,83,77,65,29.90,29.79,9,3,13,0.00
2013-9-22,75.4,66.3,57.8,62.6,58.5,50.7,89,77,44,29.84,29.76,9,2,14,0.00
2013-9-23,91.3,73.8,54.9,62.8,56.7,51.7,89,59,29,29.88,29.81,5,1,6,0.00
2013-9-24,84.2,70.1,57.5,61.2,56.3,46.5,89,66,29,29.91,29.81,8,2,11,0.00
2013-9-25,73.4,67.3,62.0,63.5,61.0,54.7,88,80,66,29.84,29.69,9,2,11,0.00
2013-9-26,75.9,65.4,57.1,60.0,55.3,49.6,88,71,40,29.86,29.71,10,3,16,0.00
2013-9-27,84.8,66.6,51.9,57.5,48.8,40.6,89,60,23,29.96,29.86,11,2,15,0.00
2013-9-28,88.5,61.1,49.9,51.6,47.5,36.4,89,68,16,30.02,29.95,7,0,9,0.00
2013-9-29,83.0,67.3,50.9,60.4,52.0,46.2,85,61,32,30.05,29.94,7,2,0,0.00
2013-10-1,75.6,66.9,58.9,64.7,60.7,55.7,89,81,67,29.92,29.85,6,2,0,0.00
2013-10-2,72.7,67.3,63.7,62.6,60.0,58.6,84,78,69,29.96,29.86,6,2,11,0.00
2013-10-3,71.9,70.1,68.8,62.5,61.8,60.6,76,75,72,29.90,29.88,5,3,7,0.00
2013-10-4,86.7,72.5,58.9,63.4,49.2,22.0,89,56,10,30.01,29.86,10,3,16,0.00
2013-10-5,91.9,79.5,59.2,46.6,34.8,24.6,61,23,9,30.08,29.99,11,4,16,0.00
2013-10-6,92.8,70.7,49.6,53.0,42.1,26.6,78,45,10,30.05,29.93,7,2,11,0.00
2013-10-7,77.8,63.1,54.0,61.0,52.8,46.6,82,70,43,29.96,29.90,6,1,10,0.00
2013-10-8,72.1,68.5,63.4,60.8,58.7,56.1,79,71,63,29.92,29.81,7,4,9,0.00
2013-10-9,67.2,61.2,57.1,55.7,53.1,48.2,85,75,59,29.82,29.70,12,3,16,0.04
2013-10-10,68.3,63.0,51.9,54.6,52.0,48.5,88,68,56,30.00,29.81,8,3,11,0.00
2013-10-11,70.4,57.2,49.3,58.5,51.4,46.2,92,82,61,30.03,29.97,6,1,6,0.00
2013-10-12,71.2,61.3,51.3,62.0,55.8,48.2,92,83,66,29.97,29.87,8,2,12,0.01
2013-10-13,69.1,62.0,56.2,58.5,55.7,52.7,89,80,65,30.01,29.94,7,2,10,0.00
2013-10-14,85.0,65.6,51.7,59.9,54.0,48.6,92,70,31,30.01,29.87,7,2,11,0.01
2013-10-15,86.7,69.2,52.4,57.7,48.5,40.9,92,55,21,29.95,29.84,8,1,10,0.01
2013-10-16,84.4,65.1,51.9,50.1,44.6,34.2,87,55,18,30.04,29.95,7,1,11,0.00
2013-10-17,78.9,68.8,49.1,62.6,52.2,42.6,86,58,30,30.02,29.90,7,2,9,0.00
2013-10-18,82.1,63.2,50.8,62.9,53.3,47.7,92,73,37,29.99,29.90,5,1,9,0.00
2013-10-19,61.9,59.2,56.6,57.6,55.6,53.1,88,88,85,29.97,29.96,0,0,0,0.01
2013-10-20,70.3,65.6,55.9,61.7,59.0,52.4,89,79,73,29.97,29.88,7,2,10,0.00
2013-10-21,71.2,61.0,56.1,59.8,56.0,52.7,89,84,63,29.97,29.88,4,1,6,0.00
2013-10-22,69.3,60.4,55.6,61.0,56.3,52.2,89,86,75,29.99,29.93,2,0,4,0.00
2013-10-23,65.5,61.3,56.0,58.3,56.7,52.8,89,85,76,29.96,29.90,7,0,11,0.00
2013-10-24,68.8,64.0,61.8,59.0,56.8,55.7,81,78,70,30.02,29.94,7,1,13,0.00
2013-10-25,68.9,62.7,59.4,60.4,57.6,55.9,89,84,73,30.11,29.99,4,1,6,0.00
2013-10-26,71.8,63.0,57.9,63.1,58.2,54.7,89,84,72,30.08,29.95,6,1,8,0.01
2013-10-27,68.3,61.6,55.4,61.5,57.6,52.2,89,87,78,29.96,29.83,6,1,11,0.00
2013-10-28,65.7,61.5,53.7,56.7,53.5,49.6,86,75,66,29.92,29.84,11,5,16,0.00
2013-10-29,66.0,60.2,52.8,54.8,52.4,49.6,89,76,63,29.99,29.91,9,3,13,0.04
2013-10-30,66.7,52.5,47.7,54.0,48.4,44.8,92,86,61,30.06,29.99,2,0,3,0.01
2013-10-31,78.0,60.4,46.6,56.6,49.3,42.1,90,70,28,30.07,29.95,7,1,9,0.01
2013-11-25,51.2,49.7,47.9,46.0,45.3,43.9,86,85,82,30.18,30.17,0,0,0,0.00
2013-11-26,74.8,58.0,44.5,54.4,47.3,41.5,92,71,38,30.17,30.02,5,1,0,0.00
2013-11-27,73.4,57.4,47.6,50.9,46.8,44.2,88,71,38,30.01,29.86,7,1,0,0.00
2013-11-28,68.5,57.2,45.9,57.0,50.5,41.9,89,79,54,30.04,29.88,5,1,0,0.00
2013-11-29,65.2,57.4,51.9,57.4,53.1,48.8,89,86,70,30.16,30.04,3,0,0,0.32
2013-11-30,75.1,59.6,50.1,56.0,50.4,47.0,90,75,43,30.17,30.05,5,1,8,0.00
2013-12-4,61.4,52.8,44.0,47.4,39.6,31.6,81,62,42,29.95,29.77,7,2,0,0.00
2013-12-5,61.2,49.5,40.0,42.8,39.6,36.2,87,70,47,30.09,29.93,6,1,0,0.00
2013-12-6,60.9,49.3,39.3,46.5,41.3,36.0,94,75,54,30.16,30.08,6,1,10,0.00
2013-12-7,58.8,48.3,40.6,52.6,42.0,33.2,92,80,59,30.11,29.99,11,2,17,0.10
2013-12-8,56.0,45.7,34.9,41.1,37.0,31.0,89,73,50,30.19,30.08,4,1,6,0.00
2013-12-9,62.9,49.5,35.7,38.9,25.5,8.3,89,51,13,30.27,30.18,12,2,10,0.00
2013-12-10,68.3,52.4,38.2,40.0,25.3,11.7,68,38,14,30.24,30.06,6,2,8,0.00
2013-12-11,72.5,51.1,36.6,50.2,32.7,25.1,88,53,19,30.14,30.08,6,1,6,0.00
2013-12-12,64.8,51.7,40.6,55.2,45.8,37.0,92,81,64,30.19,30.11,5,1,9,0.00
2013-12-13,65.2,47.7,39.7,52.7,43.1,36.7,90,85,55,30.21,30.10,4,0,4,0.01
2013-12-14,75.0,48.8,39.8,48.6,41.8,36.4,89,80,25,30.27,30.16,3,0,5,0.01
2013-12-15,80.6,59.7,42.4,42.3,36.2,28.3,79,47,15,30.22,30.04,6,1,5,0.00
2013-12-16,82.2,63.6,53.3,54.3,42.0,34.4,72,47,23,30.10,30.02,7,1,9,0.00
2013-12-17,75.1,60.3,46.7,58.7,50.7,42.4,86,72,40,30.11,29.99,5,0,6,0.00
2013-12-18,68.9,60.1,53.5,58.1,54.2,49.7,88,81,57,29.99,29.85,7,1,9,0.00
2013-12-19,58.5,53.8,45.8,51.0,47.9,42.4,88,81,69,29.85,29.70,7,1,10,0.13
2013-12-20,60.7,46.8,41.3,52.5,43.3,38.3,92,87,74,29.94,29.75,4,0,6,0.01
2013-12-21,61.5,47.4,43.2,53.5,43.9,40.2,89,88,75,30.07,29.91,4,0,6,0.01
2013-12-22,62.6,46.7,41.9,52.3,43.5,38.9,90,88,69,30.25,30.07,0,0,3,0.01
2013-12-23,76.2,55.6,44.2,50.9,44.4,41.2,89,70,30,30.30,30.15,5,1,9,0.00
2013-12-24,76.3,57.5,43.4,53.9,45.4,38.9,86,66,37,30.18,30.07,3,0,3,0.00
2013-12-25,81.9,61.5,45.1,46.2,35.1,23.9,84,45,13,30.17,30.08,10,1,14,0.00
2013-12-26,82.3,64.7,44.3,36.5,28.6,18.9,67,31,10,30.14,30.03,8,2,10,0.00
2013-12-27,82.1,56.9,41.6,45.3,34.1,23.9,70,47,12,30.13,30.01,3,1,5,0.00
2013-12-28,67.1,52.7,46.8,56.6,46.9,38.6,88,81,54,30.02,29.92,5,0,6,0.00
2013-12-29,78.3,55.0,45.0,49.7,40.9,25.1,90,65,14,30.13,29.99,4,0,5,0.01
2013-12-30,74.1,53.6,37.0,43.9,37.8,30.7,86,61,21,30.24,30.12,4,1,5,0.00
2013-12-31,68.3,47.9,38.2,50.7,41.7,35.0,88,81,32,30.19,30.07,3,0,5,0.00
2014-1-1,67.5,47.9,40.5,53.2,43.2,37.5,90,84,54,30.13,30.02,3,0,5,0.01
2014-1-2,74.8,54.4,41.9,56.9,48.0,38.9,90,81,34,30.08,29.97,5,0,5,0.01